Location: Stockholm
(59.3330°N, 18.0500°E)
Time: 13:24:13
(UTC+01:00)

Envisat - Pass Details

Date: 06 December 2022
Orbit: 763 x 765 km, 98.2° (Epoch: 29 January)

Event Time Altitude Azimuth Distance (km) Brightness Sun altitude
Rises 05:03:30 0° 16° (NNE) 3,250 6.4 -23.6°
Reaches altitude 10° 05:05:51 10° 12° (NNE) 2,319 5.6 -23.3°
Maximum altitude 05:10:51 57° 295° (WNW) 907 3.0 -22.7°
Enters shadow 05:11:02 56° 286° (WNW) 910 3.0 -22.7°
